[[{"header":{"parameterUnit":"m.s-1","parameterCategory":1,"la1":30.2992,"la2":30.254,"lo1":-89.0895,"lo2":-89.0443,"dy":0.0025,"dx":0.0025,"nx":19,"ny":19,"refTime":"2026-05-04T03:00:00:Z","depth":0,"parameterNumber":2,"parameterNumberName":"U-component_of_WINDS"},"data":[0,0,0,-1.4006,-1.4007,-1.4049,-1.4049,-1.4105,-1.4106,0,0,0,0,0,0,0,0,0,0,0,-1.3994,-1.3994,-1.4006,-1.4007,-1.4049,-1.4049,-1.4105,-1.4106,0,0,0,0,0,0,0,0,0,0,0,-1.3994,-1.3994,-1.3995,-1.4007,-1.4049,-1.4049,-1.4105,-1.4072,0,0,0,0,0,0,0,0,0,0,-1.4031,-1.402,-1.3994,-1.3995,-1.4007,-1.4049,-1.4049,-1.4071,-1.4075,-1.4087,0,-1.4097,0,-1.4103,-1.411,-1.411,0,0,0,-1.4006,-1.4017,-1.4028,-1.3995,-1.4007,-1.4049,-1.403,-1.4073,-1.4077,-1.4092,-1.4098,-1.41,-1.4103,-1.411,-1.411,-1.4182,-1.4182,0,0,-1.4004,-1.4002,-1.4026,-1.4031,-1.4024,-1.4028,-1.4031,-1.4075,-1.4082,-1.4098,-1.4102,-1.4104,-1.411,-1.4111,-1.4182,-1.4182,0,0,0,-1.3997,-1.4,-1.401,-1.4029,-1.4036,-1.403,-1.4033,-1.4081,-1.4084,-1.4102,-1.4105,-1.4111,-1.4111,-1.4181,-1.4182,-1.4197,0,0,0,-1.3996,-1.3996,-1.4009,-1.4008,-1.4036,-1.4059,-1.4037,-1.4081,-1.4086,-1.4105,-1.4111,-1.4112,-1.4181,-1.4182,-1.4196,-1.4204,0,0,0,-1.3991,-1.3996,-1.4002,-1.4008,-1.4026,-1.4058,-1.4064,-1.4082,-1.4088,-1.411,-1.4112,-1.4181,-1.4181,-1.4195,-1.4202,-1.4222,0,0,0,-1.3984,-1.4015,-1.4002,-1.4037,-1.4026,-1.4067,-1.4064,-1.4095,-1.4116,-1.4111,-1.4181,-1.4182,-1.4194,-1.4201,-1.4221,-1.4238,-1.4245,0,0,-1.4021,-1.4019,-1.404,-1.403,-1.4073,-1.4061,-1.4107,-1.4128,-1.4133,-1.4165,-1.4167,-1.4196,-1.4202,-1.4222,-1.4287,-1.4293,0,0,0,-1.4051,-1.4066,-1.4078,-1.4098,-1.4115,-1.413,-1.4145,-1.4153,-1.4181,-1.4149,-1.4209,-1.4213,-1.4225,-1.4233,-1.4238,-1.4248,-1.4186,-1.4186,-1.4186,-1.4099,-1.4103,-1.4138,-1.4148,-1.4168,-1.4183,-1.4199,-1.4213,-1.4211,-1.4226,-1.4235,-1.4274,-1.4283,-1.4287,-1.4298,-1.4245,-1.4245,-1.4245,-1.4245,-1.4153,-1.4174,-1.4173,-1.4206,-1.4211,-1.4239,-1.4256,-1.4254,-1.4281,-1.4267,-1.4277,-1.4261,-1.4293,-1.4303,-1.4246,-1.4246,-1.4246,-1.4246,-1.4246,-1.4184,-1.4195,-1.4205,-1.4235,-1.4258,-1.4267,-1.4294,-1.4297,-1.4301,-1.4311,-1.4322,-1.4322,-1.4322,-1.4316,-1.4317,-1.4317,-1.4317,-1.4317,-1.4317,-1.4212,-1.4223,-1.4244,-1.4266,-1.428,-1.4299,-1.4316,-1.433,-1.4346,-1.4347,-1.4347,-1.4344,-1.4296,-1.4283,-1.4319,-1.4319,-1.4318,-1.4318,-1.4318,-1.4264,-1.4253,-1.4286,-1.43,-1.4327,-1.435,-1.4355,-1.4383,-1.4395,-1.4408,-1.4404,-1.4368,-1.4366,-1.4362,-1.4351,-1.4403,-1.4403,-1.4403,-1.4403,-1.4289,-1.4289,-1.4325,-1.4347,-1.4369,-1.4378,-1.4416,-1.443,-1.4443,-1.4452,-1.4445,-1.4432,-1.4428,-1.4428,-1.4423,-1.4413,-1.4479,-1.4479,-1.4479,-1.4321,-1.4324,-1.4355,-1.4368,-1.439,-1.4408,-1.4445,-1.4471,-1.4484,-1.4482,-1.4458,-1.4455,-1.4433,-1.4426,-1.4423,-1.4415,-1.4397,0,0]},{"header":{"parameterUnit":"m.s-1","parameterCategory":1,"la1":30.2992,"la2":30.254,"lo1":-89.0895,"lo2":-89.0443,"dy":0.0025,"dx":0.0025,"nx":19,"ny":19,"refTime":"2026-05-04T03:00:00:Z","depth":0,"parameterNumber":3,"parameterNumberName":"V-component_of_WINDS"},"data":[0,0,0,1.2638,1.2638,1.2637,1.2637,1.263,1.263,0,0,0,0,0,0,0,0,0,0,0,1.2636,1.2636,1.2638,1.2638,1.2637,1.2637,1.263,1.263,0,0,0,0,0,0,0,0,0,0,0,1.2637,1.2636,1.2636,1.2638,1.2637,1.2637,1.263,1.2633,0,0,0,0,0,0,0,0,0,0,1.2635,1.2631,1.2636,1.2636,1.2638,1.2637,1.2637,1.2633,1.2632,1.2628,0,1.2625,0,1.2627,1.2629,1.2629,0,0,0,1.264,1.2631,1.2633,1.2636,1.2638,1.2637,1.2638,1.2633,1.2632,1.2628,1.2625,1.2625,1.2627,1.2629,1.2629,1.2602,1.2602,0,0,1.264,1.2635,1.2633,1.2633,1.2633,1.2638,1.2638,1.2632,1.2628,1.2625,1.2624,1.2627,1.2629,1.2629,1.2603,1.2602,0,0,0,1.2639,1.2635,1.2637,1.2633,1.2633,1.2638,1.2638,1.2629,1.263,1.2624,1.2627,1.2629,1.2628,1.2603,1.2602,1.2588,0,0,0,1.2639,1.2634,1.2637,1.2633,1.2633,1.2631,1.2634,1.263,1.263,1.2627,1.2629,1.2628,1.2603,1.2603,1.2589,1.2582,0,0,0,1.2637,1.2634,1.2633,1.2633,1.2632,1.2631,1.2632,1.263,1.2631,1.2629,1.2628,1.2603,1.2603,1.259,1.2583,1.2574,0,0,0,1.2633,1.2619,1.2633,1.2618,1.2632,1.2622,1.2632,1.2625,1.2621,1.2629,1.2603,1.2603,1.259,1.2584,1.2575,1.2566,1.2561,0,0,1.2613,1.2617,1.2608,1.262,1.2607,1.2623,1.2607,1.2608,1.2612,1.2605,1.2605,1.2589,1.2584,1.2574,1.2538,1.2534,0,0,0,1.26,1.2594,1.2592,1.2588,1.259,1.259,1.2594,1.2595,1.2589,1.2608,1.2583,1.258,1.2575,1.2571,1.2567,1.2564,1.26,1.26,1.26,1.2563,1.257,1.2557,1.2564,1.256,1.2565,1.2563,1.2565,1.2572,1.2566,1.2564,1.2541,1.2536,1.2534,1.2529,1.2559,1.2559,1.2559,1.2559,1.2533,1.2526,1.2537,1.2529,1.2536,1.2528,1.2533,1.2538,1.2532,1.2543,1.2538,1.255,1.2529,1.2526,1.2558,1.2558,1.2558,1.2558,1.2558,1.251,1.2508,1.251,1.2506,1.2502,1.2509,1.2503,1.251,1.2516,1.2512,1.251,1.2511,1.2512,1.2511,1.251,1.251,1.251,1.251,1.251,1.2486,1.2488,1.2482,1.2483,1.2482,1.2481,1.2487,1.2486,1.2486,1.2491,1.2491,1.2499,1.2526,1.2533,1.2509,1.2509,1.2509,1.251,1.251,1.2454,1.2462,1.2454,1.2453,1.2455,1.2451,1.2459,1.2457,1.2457,1.2454,1.2463,1.2481,1.2485,1.2488,1.2494,1.2461,1.2461,1.2461,1.2461,1.2435,1.2438,1.2431,1.2429,1.2428,1.2435,1.2425,1.2429,1.2434,1.2435,1.244,1.2448,1.245,1.2453,1.2457,1.2462,1.2422,1.2422,1.2422,1.2416,1.2419,1.241,1.2416,1.2417,1.2419,1.241,1.2407,1.2414,1.2421,1.2435,1.2437,1.245,1.2454,1.2461,1.2466,1.2476,0,0]}]]